Tracking 29892 objects as of 21-Nov-2024
HD Live streaming from Space Station
objects crossing your sky now

NUSAT-41 (C PAYNE-G)

Track NUSAT-41 (C PAYNE-G) now!
10-day predictions


NORAD ID: 56944
Int'l Code: 2023-084N
Perigee: 477.3 km
Apogee: 486.8 km
Inclination: 97.5 °
Period: 94.1 minutes
Semi major axis: 6853 km
RCS: Unknown
Launch date: June 12, 2023
Source: (TARGN)
Launch site: AIR FORCE WESTERN TEST RANGE (AFWTR)
Your satellite tracking list
Your tracking list is empty




NASA's NSSDC Master Catalog

Two Line Element Set (TLE):
1 56944U 23084N   24326.12040159  .00024621  00000-0  84053-3 0  9992
2 56944  97.4905  85.0157 0006907 177.1061 183.0221 15.30291692 80154
Source of the keplerian elements: AFSPC